Regional Weather Roundup
Issued by NWS Goodland, KS

Home | Current Version | Previous Version | Text Only | Print | Product List | Glossary Off
Versions: 1 2 3 4 5 6 7 8 9 10 11 12 13 14 15 16 17 18 19 20 21 22 23 24 25 26 27 28 29 30 31 32 33 34 35 36 37 38 39 40 41 42 43 44 45 46 47 48 49 50

000
ASUS43 KGLD 301408
RWRGLD

GOODLAND FORECAST AREA HOURLY WEATHER ROUNDUP
NATIONAL WEATHER SERVICE GOODLAND KS
800 AM MDT SUN AUG 30 2015

...OFFICIAL OBSERVATIONS...

CITY           SKY/WX    TMP DP  RH WIND       PRES   REMARKS
GOODLAND KS    MOSUNNY   65  50  58 S10       30.09S
HILL CITY KS   MOSUNNY   59  58  96 CALM      30.06F FOG
IMPERIAL NEB   SUNNY     67  48  50 S10       30.04S
MCCOOK NEB     SUNNY     61  54  77 CALM      30.05S
AKRON CO       SUNNY     70  47  43 S17       30.07S
BURLINGTON CO  SUNNY     66  47  50 S12       30.11S
LIMON CO       SUNNY     58  47  66 CALM      30.17R
$$

...UNOFFICIAL OBSERVATIONS...

CITY           SKY/WX    TMP DP  RH WIND       PRES   REMARKS
COLBY KS       SUNNY     64  55  72 SW7       30.09F
GOVE KS          N/A     58  32  37 MISG        N/A
LENORA KS        N/A     64  32  30 MISG        N/A
NORTON KS      SUNNY     61  55  82 S5        30.05S
SHARON SPRINGS   N/A     67  52  57 S9          N/A
YUMA CO          N/A     69  49  48 SW9         N/A
$$


USA.gov is the U.S. government's official web portal to all federal, state and local government web resources and services.